Flag for Mexico Weather past 2 weeks in Ojinaga, Chihuahua, Mexico

Now
64 °F

Passing clouds.


Feels Like: 64 °F
Forecast: 72 / 93 °F
Wind: No wind

Location: Marfa Municipal Airport

Current Time: Aug 21, 2014 at 6:33:28 AM

Latest Report: Aug 21, 2014 at 5:55 AM


Visibility: 10 mi

Pressure: 30.16 "Hg

Humidity: 94%

Dew point: 63 °F

Location of OjinagaLocation

Historic Weather in Ojinaga — Graph

°F

Ojinaga temperature yesterday

Maximum temperature yesterday: 84 °F (at 2:35 PM)
Minimum temperature yesterday: 64 °F (at 7:35 AM)
Average temperature yesterday: 73 °F

Past Weeks' High & Low Weather Summary

 TemperatureHumidityPressure
High91 °F (Aug 7, 12:15 PM)100% (Aug 10, 5:55 AM)30.35 "Hg (Aug 10, 5:55 AM)
Low57 °F (Aug 10, 5:35 AM)22% (Aug 7, 2:35 PM)30.00 "Hg (Aug 19, 5:15 PM)
Average73 °F64%30.18 "Hg
* Reported Aug 6 5:15 AM — Aug 21 5:35 AM, Ojinaga, Weather by CustomWeather, © 2014

Note: Actual official high and low records may vary slightly from our data, if they occured in-between our weather recording intervals... More about our weather records

Advertising

Ojinaga weather history for previous 24 hours

 ConditionsComfort  
Time TempWeatherWind HumidityBarometerVisibility
5:35 AM
Aug 21
64 °FClear.No wind94%30.16 "Hg10 mi
4:55 AM64 °FClear.3 mph94%30.15 "Hg10 mi
4:35 AM66 °FClear.3 mph88%30.15 "Hg10 mi
4:15 AM66 °FClear.3 mph88%30.14 "Hg10 mi
3:55 AM66 °FClear.3 mph88%30.15 "Hg10 mi
3:35 AM64 °FClear.7 mph94%30.14 "Hg10 mi
3:15 AM66 °FClear.No wind88%30.13 "Hg10 mi
2:55 AM66 °FClear.No wind88%30.13 "Hg10 mi
2:35 AM66 °FPassing clouds.No wind88%30.14 "Hg10 mi
2:15 AM66 °FPassing clouds.No wind88%30.14 "Hg10 mi
1:55 AM68 °FPassing clouds.3 mph83%30.14 "Hg10 mi
1:35 AM68 °FPassing clouds.3 mph83%30.15 "Hg10 mi
1:15 AM66 °FPassing clouds.3 mph88%30.15 "Hg10 mi
12:55 AM66 °FOvercast.3 mph88%30.16 "Hg10 mi
12:35 AM66 °FPassing clouds.5 mph88%30.16 "Hg10 mi
12:15 AM68 °FPassing clouds.No wind83%30.16 "Hg10 mi
11:55 PM
Aug 20
68 °FPartly cloudy.No wind83%30.16 "Hg10 mi
11:35 PM68 °FPassing clouds.No wind83%30.17 "Hg10 mi
11:15 PM68 °FPassing clouds.No wind83%30.16 "Hg10 mi
10:55 PM70 °FPassing clouds.5 mph78%30.16 "Hg10 mi
10:35 PM70 °FPassing clouds.7 mph78%30.15 "Hg10 mi
10:15 PM70 °FClear.6 mph78%30.15 "Hg10 mi
9:55 PM70 °FClear.5 mph78%30.14 "Hg10 mi
9:35 PM70 °FClear.8 mph78%30.13 "Hg10 mi
9:15 PM70 °FClear.9 mph78%30.13 "Hg10 mi
8:55 PM70 °FClear.9 mph78%30.11 "Hg10 mi
8:35 PM72 °FPassing clouds.12 mph69%30.11 "Hg10 mi
8:15 PM72 °FScattered clouds.8 mph69%30.10 "Hg10 mi
7:55 PM72 °FPartly sunny.8 mph73%30.10 "Hg10 mi
7:35 PM73 °FThundershowers. Overcast.10 mph69%30.10 "Hg10 mi
7:15 PM73 °FThundershowers. Cloudy.15 mph61%30.10 "Hg10 mi
6:55 PM75 °FThunderstorms. Mostly cloudy.17 mph54%30.10 "Hg10 mi
6:35 PM82 °FThundershowers. Mostly cloudy.15 mph45%30.08 "Hg10 mi
5:55 PM84 °FPartly sunny.7 mph45%30.07 "Hg10 mi
5:35 PM82 °FPartly sunny.5 mph42%30.06 "Hg10 mi
5:15 PM84 °FPartly sunny.7 mph40%30.07 "Hg10 mi
4:55 PM84 °FPartly sunny.7 mph40%30.06 "Hg10 mi
4:35 PM84 °FScattered clouds.9 mph40%30.06 "Hg10 mi
4:15 PM84 °FPassing clouds.7 mph40%30.06 "Hg10 mi
3:55 PM84 °FScattered clouds.12 mph40%30.06 "Hg10 mi
3:35 PM84 °FSunny.7 mph40%30.07 "Hg10 mi
2:55 PM84 °FPassing clouds.6 mph40%30.08 "Hg10 mi
2:35 PM84 °FPassing clouds.5 mph43%30.09 "Hg10 mi
2:15 PM81 °FSunny.10 mph45%30.10 "Hg10 mi
1:55 PM81 °FPassing clouds.7 mph45%30.11 "Hg10 mi
1:35 PM81 °FPassing clouds.10 mph45%30.11 "Hg10 mi
1:15 PM81 °FSunny.7 mph45%30.12 "Hg10 mi
12:55 PM79 °FPassing clouds.7 mph48%30.13 "Hg10 mi
12:35 PM79 °FPartly sunny.8 mph48%30.13 "Hg10 mi
11:55 AM75 °FOvercast.9 mph57%30.14 "Hg10 mi
11:35 AM75 °FPartly sunny.12 mph57%30.14 "Hg10 mi
11:15 AM75 °FPartly sunny.10 mph57%30.14 "Hg10 mi
10:55 AM75 °FPassing clouds.13 mph54%30.13 "Hg10 mi
10:35 AM75 °FPartly sunny.14 mph57%30.13 "Hg10 mi
10:15 AM73 °FPartly sunny.13 mph65%30.13 "Hg10 mi
9:55 AM72 °FPassing clouds.10 mph73%30.13 "Hg10 mi
9:35 AM70 °FSunny.10 mph83%30.13 "Hg10 mi
9:15 AM70 °FSunny.10 mph78%30.13 "Hg10 mi
8:55 AM66 °FPartly sunny.10 mph94%30.12 "Hg10 mi
8:35 AM66 °FOvercast.12 mph88%30.12 "Hg10 mi
7:55 AM64 °FMore clouds than sun.12 mph94%30.12 "Hg10 mi
7:35 AM64 °FCloudy.15 mph88%30.12 "Hg10 mi
7:15 AM66 °FMostly cloudy.17 mph83%30.12 "Hg10 mi
6:55 AM66 °FPartly cloudy.12 mph88%30.12 "Hg10 mi
6:35 AM66 °FPartly cloudy.7 mph88%30.11 "Hg10 mi
Weather by CustomWeather, © 2014

See weather overviewHow to use our weather pages